SL-14 DEB, 45338

Orbit data source: Space-Track

SL-14 DEB, 45338 is space debris in LEO originally from a launch on Thu, 15 Aug 1991 UTC launched from the Plesetsk Missile And Space Complex (PKMTR). Debris objects in space refer to the collection of defunct objects orbiting the Earth. Examples of debris include non-operational satellites, rocket bodies, and fragments generated from explosions, collisions, or faulty payload assembly.

Loading next visibility...
Identifier
45338, 1991-056CC
Orbit
LEO
Country
Flag of CISCIS
Related business
Manufacturer
Unknown
Mission
Spacecraft
Bus & Motor
Unknown
Mass
Unknown
Launch date (UTC)
1991-08-15 (34 years ago)
Launch vehicle
Unknown
Launch site
Plesetsk Missile And Space Complex (PKMTR)
Object type
Payload
Rocket body
Debris
Shape & HBR
Unknown shape, 0.1 m
Radar Cross Section
Small (<0.1 m²)

Expand to show TLE details & history
Last TLE update: 16 hours ago

TLE from 16 hours ago
0 SL-14 DEB
1 45338U 91056CC  25287.29980874  .00014929  00000-0  13901-1 0  9995
2 45338  82.5616 217.4919 0153974 353.2754   6.6332 13.76726541277833
Epoch: 2025-10-14T07:11Z
TLE epoch observation values (Epoch: 2025-10-14T07:11:43.475Z)
Latitude
-0.00004°
Longitude
86.47053°
Altitude
865.946 km
Speed
7.476 km/s
True Right ascension
14h 29m 58s
True Declination
0° 00' 00"
Sunlit
Object was in daylight at epoch
Visualization orbit readout
Latitude
Unknown
Longitude
Unknown
Altitude
Unknown
Speed
Unknown
Apparent Right ascension
Unknown
Apparent Declination
Unknown
Sunlit
N/A
Visualization observer readout
Local Sidereal Time
18:01:57
Azimuth
Unknown
Elevation
Unknown
Doppler factor
Unknown
Orbital elements
Apogee altitude
1,085.864 km
Perigee altitude
859.497 km
Semi-major axis
7,350.818 km
Eccentricity
0.0154
Inclination
82.5616°
RAAN
217.4919°
Arg. of periapsis
353.2754°
True anomaly
6.84098°
Mean anomaly
6.6332°
Eccentric anomaly
6.73669°
Mean motion
3.44381 °/min
Orbital period
104.54 mins
BSTAR
0.013901
Loading maneuver chart data...
Computing Atmospheric mass density...
Loading historical data...
Loading historical data...
Loading historical data...
Loading historical data...
Loading historical data...
Loading historical data...
Loading historical data...

Documentation

Showing up to 5 results
|